QPF
0.00 0.00 0.00 0.00 0.00 0.00 0.00 0.00 0.00 0.00 0.00 0.00 0.00 0.00 0.00 0.00 0.00 0.00 0.00 0.00 0.00 0.00 0.00 0.00 0.00 0.00 0.00 0.00 0.00 0.00 0.00 0.00 0.00 0.00 0.00 0.00 0.00 0.00 0.00 0.00 0.00 0.00 0.00 0.00 0.00 0.00 0.00 0.00 0.00
0.00 0.00 0.00 0.00 0.00 0.00 0.00 0.00 0.00 0.00 0.00 0.00 0.00 0.00 0.00 0.00 0.00 0.00 0.00 0.00 0.00 0.00 0.00 0.00 0.00 0.00 0.00 0.00 0.00 0.00 0.00 0.00 0.00 0.00 0.00 0.00 0.00 0.00 0.00 0.00 0.00 0.00 0.00 0.00 0.00 0.00 0.00 0.00 0.00
0.00 0.00 0.00 0.00 0.00 0.00 0.00 0.00 0.00 0.00 0.00 0.00 0.00 0.00 0.00 0.00 0.00 0.00 0.00 0.00 0.00 0.00 0.00 0.00 0.00 0.00 0.00 0.00 0.00 0.00 0.00 0.00 0.00 0.00 0.00 0.00 0.00 0.00 0.00 0.00 0.00 0.00 0.00 0.00 0.00 0.00 0.00 0.00 0.00
0.00 0.00 0.00 0.00 0.00 0.00 0.00 0.00 0.00 0.00 0.00 0.00 0.00 0.00 0.00 0.00 0.00 0.00 0.00 0.00 0.00 0.00 0.00 0.00 0.00 0.00 0.00 0.00 0.00 0.00 0.00 0.00 0.00 0.00 0.00 0.00 0.00 0.00 0.00 0.00 0.00 0.00 0.00 0.00 0.00 0.00 0.00 0.00 0.00
0.00 0.00 0.00 0.00 0.00 0.00 0.00 0.00 0.00 0.00 0.00 0.00 0.00 0.00 0.00 0.00 0.00 0.00 0.00 0.00 0.00 0.00 0.00 0.00 0.00 0.00 0.00 0.00 0.00 0.00 0.00 0.00 0.00 0.00 0.00 0.00 0.00 0.00 0.00 0.00 0.00 0.00 0.00 0.00 0.00 0.00 0.00 0.00 0.00
0.00 0.00 0.00 0.00 0.00 0.00 0.00 0.00 0.00 0.00 0.00 0.00 0.00 0.00 0.00 0.00 0.00 0.00 0.00 0.00 0.00 0.00 0.00 0.00 0.00 0.00 0.00 0.00 0.00 0.00 0.00 0.00 0.00 0.00 0.00 0.00 0.00 0.00 0.00 0.00 0.00 0.00 0.00 0.00 0.00 0.00 0.00 0.00 0.00
0.00 0.00 0.00 0.00 0.00 0.00 0.00 0.00 0.00 0.00 0.00 0.00 0.00 0.00 0.00 0.00 0.00 0.00 0.00 0.00 0.00 0.00 0.00 0.00 0.00 0.00 0.00 0.00 0.00 0.00 0.00 0.00 0.00 0.00 0.00 0.00 0.00 0.00 0.00 0.00 0.00 0.00 0.00 0.00 0.00 0.00 0.00 0.00 0.00
0.00 0.00 0.00 0.00 0.00 0.00 0.00 0.00 0.00 0.00 0.00 0.00 0.00 0.00 0.00 0.00 0.00 0.00 0.00 0.00 0.00 0.00 0.00 0.00 0.00 0.00 0.00 0.00 0.00 0.00 0.00 0.00 0.00 0.00 0.00 0.00 0.00 0.00 0.00 0.00 0.00 0.00 0.00 0.00 0.00 0.00 0.00 0.00 0.00
0.00 0.00 0.00 0.00 0.00 0.00 0.00 0.00 0.00 0.00 0.00 0.00 0.00 0.00 0.00 0.00 0.00 0.00 0.00 0.00 0.00 0.00 0.00 0.00 0.00 0.00 0.00 0.00 0.00 0.00 0.00 0.00 0.00 0.00 0.00 0.00 0.00 0.00 0.00 0.00 0.00 0.00 0.00 0.00 0.00 0.00 0.00 0.00 0.00
0.00 0.00 0.00 0.00 0.00 0.00 0.00 0.00 0.00 0.00 0.00 0.00 0.00 0.00 0.00 0.00 0.00 0.00 0.00 0.00 0.00 0.00 0.00 0.00 0.00 0.00 0.00 0.00 0.00 0.00 0.00 0.00 0.00 0.00 0.00 0.00 0.00 0.00 0.00 0.00 0.00 0.00 0.00 0.00 0.00 0.00 0.00 0.00 0.00
0.00 0.00 0.00 0.00 0.00 0.00 0.00 0.00 0.00 0.00 0.00 0.00 0.00 0.00 0.00 0.00 0.00 0.00 0.00 0.00 0.00 0.00 0.00 0.00 0.00 0.00 0.00 0.00 0.00 0.00 0.00 0.00 0.00 0.00 0.00 0.00 0.00 0.00 0.00 0.00 0.00 0.00 0.00 0.00 0.00 0.00 0.00 0.00 0.00
0.00 0.00 0.00 0.00 0.00 0.00 0.00 0.00 0.00 0.00 0.00 0.00 0.00 0.00 0.00 0.00 0.00 0.00 0.00 0.00 0.00 0.00 0.00 0.00 0.00 0.00 0.00 0.00 0.00 0.00 0.00 0.00 0.00 0.00 0.00 0.00 0.00 0.00 0.00 0.00 0.00 0.00 0.00 0.00 0.00 0.00 0.00 0.00 0.00
0.00 0.00 0.00 0.00 0.00 0.00 0.00 0.00 0.00 0.00 0.00 0.00 0.00 0.00 0.00 0.00 0.00 0.00 0.00 0.00 0.00 0.00 0.00 0.00 0.00 0.00 0.00 0.00 0.00 0.00 0.00 0.00 0.00 0.00 0.00 0.00 0.00 0.00 0.00 0.00 0.00 0.00 0.00 0.00 0.00 0.00 0.00 0.00 0.00
0.00 0.00 0.00 0.00 0.00 0.00 0.00 0.00 0.00 0.00 0.00 0.00 0.00 0.00 0.00 0.00 0.00 0.00 0.00 0.00 0.00 0.00 0.00 0.00 0.00 0.00 0.00 0.00 0.00 0.00 0.00 0.00 0.00 0.00 0.00 0.00 0.00 0.00 0.01 0.01 0.00 0.00 0.00 0.00 0.00 0.00 0.00 0.00 0.00
0.00 0.00 0.00 0.00 0.00 0.00 0.00 0.00 0.00 0.00 0.00 0.00 0.00 0.00 0.00 0.00 0.00 0.00 0.00 0.00 0.00 0.00 0.00 0.00 0.00 0.00 0.00 0.00 0.00 0.00 0.00 0.00 0.00 0.00 0.00 0.00 0.00 0.03 0.06 0.02 0.01 0.00 0.01 0.00 0.00 0.00 0.00 0.00 0.00
0.00 0.00 0.00 0.00 0.00 0.00 0.00 0.00 0.00 0.00 0.00 0.00 0.00 0.00 0.00 0.00 0.00 0.00 0.00 0.00 0.00 0.00 0.00 0.00 0.00 0.00 0.00 0.00 0.00 0.00 0.00 0.00 0.00 0.00 0.00 0.00 0.00 0.05 0.10 0.06 0.06 0.04 0.00 0.00 0.00 0.00 0.00 0.00 0.00
0.00 0.00 0.00 0.00 0.00 0.00 0.00 0.00 0.00 0.00 0.00 0.00 0.00 0.00 0.00 0.00 0.00 0.00 0.00 0.00 0.00 0.00 0.00 0.00 0.00 0.00 0.00 0.00 0.00 0.00 0.00 0.00 0.00 0.00 0.00 0.00 0.00 0.04 0.12 0.03 0.04 0.00 0.00 0.00 0.00 0.00 0.02 0.04 0.05
0.00 0.00 0.00 0.00 0.00 0.00 0.00 0.00 0.00 0.00 0.00 0.00 0.00 0.00 0.00 0.00 0.00 0.00 0.00 0.00 0.00 0.00 0.00 0.00 0.00 0.00 0.00 0.00 0.00 0.00 0.00 0.00 0.00 0.00 0.00 0.00 0.00 0.00 0.06 0.02 0.03 0.00 0.00 0.00 0.00 0.03 0.05 0.04 0.08
0.00 0.00 0.00 0.00 0.00 0.00 0.00 0.00 0.00 0.00 0.00 0.00 0.00 0.00 0.00 0.00 0.00 0.00 0.00 0.00 0.00 0.00 0.00 0.00 0.00 0.00 0.00 0.00 0.00 0.00 0.00 0.00 0.00 0.00 0.00 0.02 0.00 0.01 0.02 0.01 0.00 0.00 0.00 0.00 0.01 0.03 0.05 0.03 0.13
0.00 0.00 0.00 0.00 0.00 0.00 0.00 0.00 0.00 0.00 0.00 0.00 0.00 0.00 0.00 0.00 0.00 0.00 0.00 0.00 0.00 0.00 0.00 0.00 0.00 0.00 0.00 0.00 0.00 0.00 0.00 0.00 0.00 0.00 0.00 0.01 0.00 0.01 0.00 0.00 0.00 0.00 0.00 0.06 0.16 0.16 0.10 0.09 0.11
0.00 0.00 0.00 0.00 0.00 0.00 0.00 0.00 0.00 0.00 0.00 0.00 0.00 0.00 0.00 0.00 0.00 0.00 0.00 0.00 0.00 0.00 0.00 0.00 0.00 0.00 0.00 0.00 0.00 0.00 0.00 0.00 0.00 0.00 0.00 0.00 0.00 0.00 0.00 0.00 0.01 0.03 0.06 0.14 0.13 0.12 0.12 0.10 0.09
0.00 0.00 0.00 0.00 0.00 0.00 0.00 0.00 0.00 0.00 0.00 0.00 0.00 0.00 0.00 0.00 0.00 0.00 0.00 0.00 0.00 0.00 0.00 0.00 0.00 0.00 0.00 0.00 0.00 0.00 0.00 0.00 0.00 0.00 0.00 0.00 0.00 0.00 0.00 0.02 0.10 0.05 0.03 0.02 0.02 0.00 0.00 0.00 0.00
0.00 0.00 0.00 0.00 0.00 0.00 0.00 0.00 0.00 0.00 0.00 0.00 0.00 0.00 0.00 0.00 0.00 0.00 0.00 0.00 0.00 0.00 0.00 0.00 0.00 0.00 0.00 0.00 0.00 0.00 0.00 0.00 0.00 0.00 0.00 0.00 0.00 0.00 0.00 0.02 0.10 0.04 0.06 0.01 0.00 0.00 0.00 0.00 0.00
0.00 0.00 0.00 0.00 0.00 0.00 0.00 0.00 0.00 0.00 0.00 0.00 0.00 0.00 0.00 0.00 0.00 0.00 0.00 0.00 0.00 0.00 0.00 0.00 0.00 0.00 0.00 0.00 0.00 0.00 0.00 0.00 0.00 0.00 0.00 0.00 0.00 0.00 0.00 0.01 0.03 0.00 0.00 0.00 0.00 0.00 0.00 0.00 0.00
0.00 0.00 0.00 0.00 0.00 0.00 0.00 0.00 0.00 0.00 0.00 0.00 0.00 0.00 0.00 0.00 0.00 0.00 0.00 0.00 0.00 0.00 0.00 0.00 0.00 0.00 0.00 0.00 0.00 0.00 0.00 0.00 0.00 0.00 0.00 0.00 0.00 0.00 0.00 0.00 0.00 0.00 0.00 0.00 0.00 0.00 0.00 0.00 0.00
0.00 0.00 0.00 0.00 0.00 0.00 0.00 0.00 0.00 0.00 0.00 0.00 0.00 0.00 0.00 0.00 0.00 0.00 0.00 0.00 0.00 0.00 0.00 0.00 0.00 0.00 0.00 0.00 0.00 0.00 0.00 0.00 0.00 0.00 0.00 0.00 0.00 0.00 0.00 0.00 0.00 0.00 0.00 0.00 0.00 0.00 0.00 0.00 0.00
0.00 0.00 0.00 0.00 0.00 0.00 0.00 0.00 0.00 0.00 0.00 0.00 0.00 0.00 0.00 0.00 0.00 0.00 0.00 0.00 0.00 0.00 0.00 0.00 0.00 0.00 0.00 0.00 0.00 0.00 0.00 0.00 0.00 0.00 0.00 0.00 0.00 0.00 0.00 0.00 0.00 0.00 0.00 0.00 0.00 0.00 0.00 0.00 0.00
0.00 0.00 0.00 0.00 0.00 0.00 0.00 0.00 0.00 0.00 0.00 0.00 0.00 0.00 0.00 0.00 0.00 0.00 0.00 0.00 0.00 0.00 0.00 0.00 0.00 0.00 0.00 0.00 0.00 0.00 0.00 0.00 0.00 0.00 0.00 0.00 0.00 0.00 0.00 0.00 0.00 0.00 0.00 0.00 0.00 0.00 0.00 0.00 0.00
0.00 0.00 0.00 0.00 0.00 0.00 0.00 0.00 0.00 0.00 0.00 0.00 0.00 0.00 0.00 0.00 0.00 0.00 0.00 0.00 0.00 0.00 0.00 0.00 0.00 0.00 0.00 0.00 0.00 0.00 0.00 0.00 0.00 0.00 0.00 0.00 0.00 0.00 0.00 0.00 0.00 0.00 0.00 0.00 0.00 0.00 0.00 0.00 0.00
0.00 0.00 0.00 0.00 0.00 0.00 0.00 0.00 0.00 0.00 0.00 0.00 0.00 0.00 0.00 0.00 0.00 0.00 0.00 0.00 0.00 0.00 0.00 0.00 0.00 0.00 0.00 0.00 0.00 0.00 0.00 0.00 0.00 0.00 0.00 0.00 0.00 0.00 0.00 0.00 0.00 0.00 0.00 0.00 0.00 0.00 0.00 0.00 0.00
MSLP
1010.43 1010.85 1011.01 1010.87 1011.80 1011.73 1010.86 1008.88 1006.92 1005.43 1004.48 1003.42 1003.04 1003.20 1003.95 1003.91 1004.62 1004.99 1003.79 1004.10 1004.65 1005.39 1006.31 1006.72 1007.27 1007.84 1008.19 1008.44 1008.64 1008.78 1008.88 1008.93 1009.17 1009.55 1009.94 1010.27 1010.47 1010.70 1011.00 1011.30 1011.59 1011.81 1011.93 1012.07 1012.30 1012.44 1012.62 1012.74 1012.74
1010.18 1010.96 1011.24 1011.17 1011.55 1011.25 1009.77 1007.46 1006.06 1004.49 1003.56 1002.87 1002.69 1002.51 1003.03 1003.42 1003.46 1003.78 1003.83 1004.38 1004.65 1005.17 1006.07 1006.59 1007.14 1007.53 1007.66 1007.82 1008.01 1008.27 1008.56 1008.73 1008.91 1009.19 1009.62 1010.04 1010.40 1010.75 1011.03 1011.29 1011.45 1011.76 1012.02 1012.15 1012.32 1012.47 1012.48 1012.65 1012.73
1010.21 1010.51 1011.49 1011.12 1010.98 1010.22 1008.51 1006.34 1005.13 1004.15 1003.43 1002.52 1002.18 1002.01 1002.41 1002.66 1002.92 1003.37 1003.22 1003.93 1004.64 1005.24 1005.79 1006.34 1006.73 1007.09 1007.21 1007.45 1007.64 1007.93 1008.26 1008.58 1008.92 1009.06 1009.37 1009.85 1010.24 1010.57 1010.95 1011.19 1011.31 1011.55 1011.92 1012.16 1012.31 1012.42 1012.46 1012.58 1012.69
1010.25 1010.91 1011.45 1010.91 1010.01 1008.51 1006.90 1005.51 1004.99 1003.90 1002.82 1002.05 1001.84 1002.27 1002.08 1002.41 1002.88 1002.77 1003.37 1003.84 1004.42 1005.12 1005.61 1006.03 1006.26 1006.59 1006.85 1007.26 1007.60 1007.81 1008.10 1008.46 1008.89 1009.22 1009.56 1009.76 1010.12 1010.56 1010.76 1010.96 1011.06 1011.26 1011.56 1011.92 1012.11 1012.22 1012.35 1012.51 1012.70
1010.42 1011.13 1011.38 1010.62 1009.22 1007.74 1006.09 1004.97 1004.35 1003.70 1002.87 1002.09 1002.02 1002.47 1002.42 1002.05 1002.62 1002.93 1003.44 1003.89 1004.29 1005.11 1005.52 1005.66 1005.79 1006.27 1006.88 1007.15 1007.44 1007.63 1007.88 1008.23 1008.65 1009.02 1009.35 1009.70 1009.95 1010.41 1010.83 1010.93 1010.94 1011.11 1011.30 1011.54 1011.88 1012.06 1012.24 1012.37 1012.63
1010.61 1011.24 1011.38 1010.24 1008.47 1006.93 1005.51 1004.30 1003.81 1003.22 1002.41 1002.05 1002.05 1002.48 1002.63 1002.38 1002.90 1003.22 1003.54 1003.60 1004.00 1004.38 1005.08 1005.51 1006.05 1006.27 1006.34 1006.59 1007.02 1007.45 1007.72 1008.01 1008.29 1008.73 1009.15 1009.56 1009.96 1010.13 1010.58 1010.91 1011.07 1011.17 1011.38 1011.54 1011.74 1011.99 1012.13 1012.34 1012.52
1010.26 1011.35 1010.84 1009.62 1008.14 1006.67 1005.01 1003.74 1003.63 1003.13 1002.40 1001.88 1001.56 1002.33 1003.00 1002.65 1002.67 1003.23 1003.26 1003.75 1004.04 1004.42 1004.95 1005.26 1005.78 1006.16 1006.29 1006.25 1006.78 1007.24 1007.45 1007.73 1008.05 1008.43 1008.76 1009.10 1009.66 1010.10 1010.35 1010.76 1011.01 1011.20 1011.17 1011.45 1011.70 1011.81 1011.97 1012.23 1012.45
1010.07 1010.60 1010.73 1009.14 1007.78 1006.40 1004.56 1003.67 1003.33 1003.09 1002.36 1001.99 1001.51 1002.34 1002.58 1002.24 1002.44 1003.10 1003.67 1004.31 1004.69 1005.16 1005.05 1005.06 1005.31 1005.62 1006.04 1006.37 1006.32 1006.72 1007.09 1007.37 1007.69 1008.08 1008.36 1008.87 1009.32 1009.66 1010.03 1010.60 1010.77 1011.04 1011.16 1011.19 1011.51 1011.65 1011.70 1012.02 1012.27
1009.58 1010.33 1010.27 1008.52 1007.40 1005.98 1004.73 1004.05 1003.46 1002.97 1002.86 1002.28 1002.46 1002.08 1001.62 1001.60 1002.33 1003.41 1004.18 1004.26 1004.67 1004.84 1005.20 1005.27 1005.23 1005.63 1005.48 1006.01 1006.17 1006.31 1006.78 1007.28 1007.58 1007.83 1008.16 1008.58 1009.12 1009.54 1009.74 1010.25 1010.64 1010.76 1010.92 1010.95 1011.11 1011.42 1011.43 1011.80 1011.99
1009.43 1009.37 1008.46 1007.29 1006.64 1005.64 1004.74 1004.20 1003.94 1003.52 1003.39 1002.77 1002.56 1002.13 1002.06 1002.10 1002.75 1003.15 1003.87 1004.08 1004.23 1004.39 1004.36 1004.49 1004.85 1004.75 1005.20 1005.49 1005.98 1006.21 1006.51 1006.84 1007.15 1007.38 1007.76 1008.24 1008.71 1009.14 1009.44 1009.93 1010.23 1010.43 1010.47 1010.63 1010.78 1011.06 1011.27 1011.56 1011.84
1008.61 1007.73 1007.08 1006.10 1006.03 1005.65 1005.04 1004.89 1004.20 1003.97 1003.35 1002.75 1002.60 1002.31 1002.07 1002.25 1002.59 1002.85 1003.12 1003.28 1003.09 1002.65 1003.41 1003.65 1004.01 1004.21 1004.61 1004.88 1005.30 1005.62 1005.84 1006.29 1006.72 1006.99 1007.33 1007.89 1008.54 1008.94 1009.31 1009.85 1009.98 1010.15 1010.20 1010.47 1010.62 1010.78 1011.03 1011.44 1011.68
1007.75 1007.17 1006.77 1005.57 1005.62 1005.55 1004.68 1004.62 1004.20 1003.79 1003.39 1002.25 1002.32 1002.38 1002.58 1002.54 1002.38 1002.58 1002.68 1002.50 1002.45 1002.48 1002.29 1002.44 1002.95 1003.64 1003.98 1004.31 1004.53 1004.83 1005.44 1005.86 1006.29 1006.43 1007.00 1007.54 1008.23 1008.71 1009.12 1009.54 1009.72 1010.05 1010.02 1010.04 1010.35 1010.67 1010.82 1011.19 1011.29
1007.17 1006.97 1006.55 1005.65 1005.58 1005.23 1004.97 1004.10 1004.05 1003.30 1003.18 1002.96 1002.69 1002.40 1002.35 1002.18 1002.25 1001.60 1001.55 1001.76 1001.69 1002.06 1001.74 1001.86 1002.26 1002.67 1003.06 1003.69 1003.96 1004.31 1004.43 1004.84 1005.39 1006.10 1006.51 1006.99 1007.74 1008.15 1008.71 1009.20 1009.41 1009.50 1009.69 1009.75 1010.11 1010.44 1010.71 1011.03 1011.03
1006.66 1006.67 1006.45 1005.98 1005.27 1005.21 1005.19 1003.95 1003.83 1002.97 1002.31 1002.31 1002.34 1002.02 1001.79 1001.87 1001.66 1001.44 1001.61 1001.49 1001.33 1000.90 1001.05 1001.14 1001.58 1001.73 1002.47 1002.93 1003.26 1003.34 1003.95 1004.43 1005.13 1005.61 1005.84 1006.50 1007.15 1007.78 1008.32 1008.90 1009.04 1009.27 1009.36 1009.40 1009.64 1010.03 1010.24 1010.51 1010.76
1006.72 1006.85 1006.34 1005.79 1005.50 1004.90 1005.05 1003.38 1002.41 1002.58 1002.27 1002.12 1001.45 1001.32 1001.18 1001.01 1000.98 1001.09 1000.73 1000.67 1000.54 1000.19 1000.09 1000.53 1000.29 1001.36 1001.79 1001.95 1002.36 1002.93 1003.27 1003.96 1004.47 1005.00 1005.38 1005.97 1006.64 1007.26 1007.95 1008.30 1008.81 1008.77 1008.96 1009.16 1009.55 1009.68 1009.95 1010.32 1010.50
1007.08 1006.82 1006.10 1005.02 1005.52 1004.99 1005.09 1000.70 1001.91 1001.85 1001.95 1001.50 1001.11 1000.85 1000.81 1000.31 1000.13 999.95 1000.03 1000.12 999.78 999.89 999.91 999.54 999.71 1000.24 1000.70 1001.18 1001.68 1002.26 1002.78 1003.46 1004.03 1004.56 1004.93 1005.51 1006.08 1006.59 1007.27 1007.90 1008.30 1008.51 1008.78 1009.08 1009.35 1009.60 1009.80 1010.09 1010.28
1007.32 1005.83 1005.19 1005.35 1004.38 1004.54 1004.45 1000.13 1002.08 1001.91 1001.88 1001.34 1000.99 1000.58 1000.38 1000.03 999.90 999.71 999.57 999.42 999.18 998.99 999.03 999.18 999.21 999.80 1000.15 1000.83 1001.41 1001.92 1002.47 1003.16 1003.73 1004.24 1004.70 1005.09 1005.52 1005.96 1006.68 1007.42 1007.98 1008.19 1008.58 1008.84 1009.11 1009.45 1009.53 1010.02 1010.12
1006.52 1006.03 1005.34 1004.84 1004.39 1004.28 1003.85 1001.08 1002.04 1001.97 1001.95 1001.27 1000.76 1000.42 1000.14 999.88 999.51 999.21 998.85 998.39 998.49 998.38 998.56 998.65 998.74 999.56 999.99 1000.61 1001.37 1001.96 1002.47 1003.01 1003.47 1003.83 1004.30 1004.68 1005.16 1005.54 1006.34 1007.16 1007.72 1007.97 1008.29 1008.75 1009.07 1009.20 1009.33 1009.47 1009.72
1006.51 1006.44 1006.38 1005.14 1004.65 1004.43 1003.55 1002.08 1001.89 1001.91 1001.66 1001.02 1000.35 1000.07 999.59 999.33 999.06 998.77 998.33 998.06 998.11 998.10 998.31 998.11 998.50 999.06 999.96 1000.96 1001.59 1002.26 1002.33 1002.84 1003.41 1003.64 1003.93 1004.38 1004.81 1005.45 1006.08 1006.75 1007.35 1007.62 1008.14 1008.25 1008.50 1008.84 1009.19 1009.43 1009.67
1006.86 1006.90 1006.74 1006.06 1005.20 1004.95 1004.14 1002.78 1002.35 1001.81 1000.96 1000.34 999.88 999.64 999.19 999.00 998.89 998.34 998.02 997.95 997.75 997.67 997.70 998.06 998.25 998.84 999.46 999.97 1000.76 1001.39 1002.02 1002.58 1003.02 1003.41 1003.78 1004.09 1004.56 1005.12 1005.67 1006.20 1006.84 1007.35 1007.72 1008.03 1008.38 1008.72 1008.98 1009.06 1009.17
1006.75 1006.88 1007.04 1006.87 1006.24 1005.21 1005.12 1003.04 1002.12 1000.91 1000.35 999.76 998.97 998.74 998.45 998.82 998.65 998.02 997.80 997.64 997.50 997.47 997.44 998.01 998.19 998.71 999.27 999.80 1000.61 1001.44 1001.97 1002.49 1003.21 1003.66 1003.89 1004.11 1004.48 1004.91 1005.33 1005.98 1006.57 1007.10 1007.40 1007.64 1007.99 1008.32 1008.66 1008.91 1009.04
1006.72 1007.02 1006.93 1007.08 1007.16 1006.57 1005.79 1002.84 1002.17 1000.35 999.54 999.20 998.65 998.15 998.12 998.10 997.76 997.70 997.64 997.48 997.10 997.01 997.50 998.37 998.41 998.96 999.33 999.68 1000.24 1001.07 1001.95 1002.63 1003.13 1003.58 1003.87 1004.24 1004.61 1005.02 1005.55 1006.07 1006.63 1006.94 1007.08 1007.40 1007.68 1007.97 1008.37 1008.70 1009.05
1006.40 1007.17 1007.17 1007.44 1007.50 1007.21 1006.21 1005.47 998.49 1000.05 998.36 998.06 997.83 997.39 997.35 996.91 997.18 997.17 996.98 997.11 996.87 997.18 997.74 998.35 998.83 999.08 999.35 1000.05 1000.23 1001.17 1002.03 1002.49 1003.12 1003.75 1004.15 1004.50 1004.77 1005.17 1005.67 1005.97 1006.46 1006.65 1006.86 1007.11 1007.28 1007.74 1008.08 1008.37 1008.72
1006.43 1006.72 1007.19 1007.63 1008.09 1007.10 1005.80 1005.56 998.64 998.97 997.16 996.97 996.56 996.68 996.51 996.71 996.85 996.80 996.72 996.74 997.12 997.47 997.95 998.43 998.80 999.42 999.74 1000.28 1000.63 1001.31 1002.02 1002.63 1003.30 1003.92 1004.39 1004.76 1005.01 1005.33 1005.62 1005.99 1006.25 1006.49 1006.66 1006.89 1007.12 1007.42 1007.76 1008.11 1008.42
1006.62 1007.27 1007.87 1008.58 1008.26 1006.01 1004.79 1004.78 998.70 997.12 996.58 996.24 996.09 996.30 996.32 996.16 996.45 996.64 996.73 996.94 997.27 997.61 998.19 998.63 999.01 999.82 1000.14 1000.58 1001.16 1001.67 1002.19 1002.61 1003.15 1003.81 1004.32 1004.73 1005.13 1005.39 1005.56 1005.79 1006.08 1006.27 1006.42 1006.67 1006.96 1007.29 1007.57 1007.82 1008.13
1006.51 1007.27 1007.31 1007.50 1007.01 1006.13 1005.06 1002.09 997.54 997.40 996.03 995.61 995.96 996.10 995.73 995.82 995.97 996.11 996.28 996.92 997.34 998.03 998.32 998.93 999.39 1000.04 1000.47 1001.05 1001.70 1002.07 1002.47 1002.79 1003.33 1003.81 1004.25 1004.62 1004.89 1005.14 1005.35 1005.60 1005.92 1006.12 1006.33 1006.61 1006.87 1007.13 1007.32 1007.53 1007.82
1006.22 1006.86 1006.95 1007.37 1006.84 1006.23 1003.52 1000.05 998.05 996.61 996.05 995.53 995.69 995.48 995.48 995.70 995.56 995.79 996.36 997.12 997.45 998.24 998.75 999.09 999.71 1000.31 1000.75 1001.40 1002.00 1002.50 1002.80 1003.09 1003.51 1003.96 1004.23 1004.55 1004.83 1005.05 1005.26 1005.52 1005.80 1006.02 1006.29 1006.54 1006.80 1007.04 1007.22 1007.40 1007.52
1005.78 1006.25 1007.15 1007.38 1006.86 1005.69 1002.66 1000.37 997.38 996.22 996.16 995.43 995.35 995.99 995.57 995.07 995.11 995.72 996.36 997.03 997.81 998.40 998.91 999.46 999.91 1000.40 1001.06 1001.58 1002.11 1002.60 1002.95 1003.19 1003.57 1003.97 1004.38 1004.54 1004.71 1004.95 1005.23 1005.58 1005.86 1006.05 1006.28 1006.51 1006.72 1006.91 1007.00 1007.16 1007.24
1006.41 1006.35 1006.58 1006.58 1006.34 1004.85 1002.87 999.11 996.93 996.75 996.08 996.28 996.05 995.65 995.23 994.48 995.08 995.70 996.35 997.12 997.91 998.52 999.10 999.73 1000.17 1000.67 1001.28 1001.72 1002.29 1002.77 1003.12 1003.34 1003.62 1003.95 1004.20 1004.41 1004.73 1005.03 1005.33 1005.67 1005.88 1006.06 1006.20 1006.50 1006.69 1006.82 1006.91 1007.08 1007.19
1006.68 1006.66 1006.56 1006.69 1006.01 1004.51 1003.21 998.46 996.17 996.42 996.38 996.38 996.10 995.71 995.45 995.43 995.80 996.17 996.47 997.20 998.04 998.63 999.32 999.90 1000.47 1000.72 1001.26 1001.77 1002.38 1002.87 1003.23 1003.53 1003.77 1004.00 1004.13 1004.37 1004.77 1005.05 1005.36 1005.64 1005.91 1006.15 1006.16 1006.42 1006.68 1006.83 1006.83 1007.01 1007.07
Thickness
5780 5778 5778 5776 5747 5736 5730 5754 5790 5794 5802 5825 5828 5818 5806 5813 5798 5775 5842 5845 5843 5834 5826 5821 5815 5808 5802 5798 5793 5789 5785 5782 5777 5770 5763 5758 5754 5748 5743 5738 5733 5729 5726 5723 5718 5716 5713 5711 5711
5778 5774 5770 5760 5734 5723 5730 5775 5782 5801 5815 5826 5825 5827 5816 5809 5831 5830 5834 5840 5842 5834 5826 5819 5812 5806 5803 5800 5797 5792 5787 5781 5775 5770 5762 5756 5751 5745 5741 5736 5733 5726 5721 5717 5713 5709 5708 5705 5704
5775 5772 5750 5745 5733 5727 5740 5784 5798 5806 5815 5825 5824 5834 5822 5820 5835 5832 5845 5843 5840 5832 5825 5818 5812 5807 5804 5799 5797 5792 5787 5781 5772 5767 5760 5753 5748 5743 5737 5733 5730 5725 5718 5712 5708 5705 5702 5700 5698
5765 5757 5748 5736 5740 5757 5771 5789 5793 5801 5818 5827 5828 5809 5831 5841 5831 5841 5843 5842 5837 5830 5824 5816 5814 5810 5804 5797 5793 5789 5784 5777 5769 5761 5754 5749 5744 5738 5734 5731 5729 5725 5718 5711 5706 5703 5700 5697 5693
5757 5743 5725 5731 5742 5764 5783 5792 5797 5798 5807 5817 5821 5803 5813 5837 5841 5840 5836 5837 5832 5825 5821 5817 5815 5809 5801 5796 5788 5784 5780 5773 5764 5758 5752 5746 5742 5736 5729 5725 5724 5721 5717 5713 5705 5701 5697 5694 5689
5739 5735 5717 5726 5747 5772 5781 5793 5794 5798 5808 5813 5811 5803 5807 5836 5833 5831 5831 5831 5832 5827 5822 5816 5808 5804 5803 5799 5789 5781 5775 5769 5763 5755 5748 5743 5738 5734 5728 5721 5717 5714 5710 5707 5702 5698 5694 5689 5685
5733 5715 5718 5735 5746 5760 5776 5796 5790 5793 5802 5806 5820 5795 5807 5820 5829 5828 5828 5825 5824 5822 5819 5817 5808 5801 5797 5799 5788 5779 5774 5768 5762 5754 5749 5744 5737 5730 5725 5719 5715 5709 5708 5703 5698 5694 5690 5686 5682
5732 5720 5715 5731 5741 5750 5780 5789 5796 5792 5795 5819 5822 5789 5791 5815 5823 5820 5817 5812 5810 5809 5812 5810 5808 5802 5795 5792 5788 5781 5775 5768 5761 5754 5748 5741 5735 5729 5724 5716 5713 5707 5703 5700 5695 5691 5688 5683 5679
5735 5701 5698 5727 5741 5756 5774 5769 5790 5801 5796 5804 5805 5804 5816 5826 5821 5811 5806 5805 5802 5805 5804 5804 5800 5797 5793 5788 5784 5780 5772 5764 5757 5752 5745 5739 5733 5726 5722 5715 5709 5705 5701 5698 5694 5688 5687 5680 5676
5713 5698 5721 5747 5756 5758 5764 5769 5773 5778 5778 5785 5794 5809 5817 5816 5807 5802 5797 5796 5799 5799 5802 5800 5794 5795 5788 5785 5780 5775 5770 5763 5756 5751 5745 5737 5732 5725 5720 5713 5708 5703 5700 5696 5692 5687 5683 5678 5674
5713 5713 5746 5754 5755 5758 5758 5759 5775 5766 5762 5781 5786 5795 5806 5808 5804 5801 5798 5796 5799 5808 5801 5798 5796 5791 5786 5784 5780 5774 5768 5760 5754 5749 5743 5735 5728 5722 5716 5709 5705 5702 5697 5693 5689 5685 5680 5674 5671
5705 5726 5736 5756 5753 5748 5755 5762 5760 5771 5771 5797 5794 5799 5796 5798 5803 5799 5798 5803 5803 5802 5804 5803 5799 5794 5787 5785 5781 5776 5765 5760 5753 5748 5741 5733 5726 5719 5714 5708 5703 5698 5694 5692 5687 5681 5677 5671 5668
5701 5714 5727 5744 5743 5743 5747 5749 5749 5759 5780 5788 5790 5793 5792 5796 5797 5807 5809 5809 5809 5802 5803 5803 5799 5795 5791 5784 5780 5773 5768 5762 5755 5745 5740 5732 5725 5719 5712 5705 5700 5696 5692 5688 5683 5678 5673 5668 5665
5707 5705 5713 5722 5731 5732 5726 5743 5749 5761 5784 5779 5780 5784 5791 5790 5797 5802 5802 5801 5803 5806 5805 5803 5798 5798 5790 5783 5778 5775 5767 5761 5751 5744 5740 5732 5724 5717 5710 5702 5697 5692 5688 5685 5680 5674 5670 5665 5661
5695 5682 5697 5706 5715 5721 5728 5724 5739 5765 5773 5770 5780 5784 5786 5791 5796 5795 5803 5799 5803 5804 5806 5800 5805 5795 5789 5784 5779 5771 5766 5760 5751 5745 5739 5732 5724 5715 5707 5700 5693 5690 5685 5680 5674 5670 5666 5661 5657
5674 5677 5672 5708 5703 5712 5713 5721 5750 5766 5760 5764 5772 5777 5781 5789 5794 5799 5801 5798 5803 5799 5798 5804 5803 5797 5790 5783 5777 5771 5764 5757 5750 5744 5738 5731 5722 5714 5706 5697 5690 5685 5680 5675 5668 5663 5659 5654 5651
5649 5668 5673 5681 5712 5704 5703 5725 5737 5755 5751 5752 5761 5770 5775 5782 5786 5792 5797 5800 5800 5801 5801 5800 5799 5790 5785 5779 5773 5767 5761 5753 5747 5741 5736 5730 5721 5714 5705 5694 5686 5680 5675 5670 5663 5656 5653 5646 5644
5645 5656 5674 5673 5689 5693 5693 5713 5724 5736 5736 5744 5754 5760 5768 5776 5783 5789 5795 5801 5797 5800 5799 5799 5794 5786 5781 5774 5766 5759 5753 5748 5744 5740 5734 5728 5720 5711 5701 5691 5682 5677 5670 5661 5654 5650 5646 5642 5637
5644 5647 5642 5663 5676 5678 5686 5699 5713 5721 5720 5731 5745 5754 5764 5767 5778 5784 5793 5794 5795 5797 5794 5794 5787 5782 5774 5763 5757 5749 5748 5744 5738 5735 5731 5724 5716 5706 5697 5686 5678 5671 5661 5656 5649 5643 5638 5634 5630
5625 5623 5626 5644 5663 5663 5672 5680 5695 5705 5721 5733 5744 5751 5760 5767 5768 5781 5786 5788 5793 5795 5792 5786 5784 5778 5771 5766 5757 5751 5746 5741 5736 5731 5725 5719 5711 5702 5693 5683 5672 5665 5658 5650 5643 5637 5632 5629 5627
5614 5614 5619 5624 5642 5657 5653 5663 5682 5709 5717 5731 5745 5750 5759 5756 5763 5776 5778 5782 5787 5787 5787 5781 5778 5772 5766 5760 5753 5745 5741 5736 5728 5721 5716 5711 5705 5696 5687 5677 5668 5660 5653 5646 5640 5634 5629 5624 5622
5594 5615 5623 5620 5619 5615 5653 5637 5670 5709 5717 5728 5740 5753 5754 5755 5768 5770 5773 5777 5782 5783 5781 5771 5770 5763 5758 5755 5749 5743 5734 5726 5721 5714 5708 5702 5696 5688 5679 5670 5659 5653 5650 5644 5637 5631 5626 5622 5617
5596 5603 5608 5611 5609 5613 5628 5607 5707 5704 5717 5729 5738 5753 5754 5766 5764 5768 5774 5775 5778 5778 5771 5764 5759 5756 5752 5747 5746 5737 5729 5723 5714 5705 5699 5694 5688 5681 5673 5666 5659 5655 5649 5641 5635 5628 5624 5620 5616
5593 5593 5597 5600 5593 5581 5623 5614 5695 5701 5725 5734 5747 5744 5755 5754 5760 5765 5771 5772 5769 5766 5761 5756 5752 5747 5745 5740 5738 5732 5724 5716 5708 5699 5692 5686 5681 5675 5669 5663 5658 5653 5648 5640 5634 5630 5626 5621 5617
5574 5562 5556 5561 5559 5598 5631 5614 5696 5716 5727 5737 5736 5741 5748 5758 5761 5762 5763 5762 5760 5757 5752 5748 5746 5739 5737 5734 5730 5725 5718 5712 5705 5696 5689 5684 5677 5671 5665 5660 5655 5651 5647 5641 5635 5631 5626 5622 5618
5553 5554 5554 5564 5570 5600 5627 5630 5694 5716 5735 5745 5744 5744 5751 5757 5760 5763 5762 5757 5753 5748 5745 5741 5738 5733 5730 5726 5720 5716 5711 5706 5700 5693 5687 5680 5674 5669 5664 5660 5655 5651 5647 5642 5636 5632 5628 5625 5621
5554 5547 5571 5565 5581 5588 5619 5664 5698 5716 5726 5737 5736 5744 5749 5751 5758 5759 5756 5749 5747 5740 5737 5735 5731 5727 5724 5718 5713 5707 5703 5699 5694 5688 5683 5677 5672 5668 5663 5659 5654 5650 5646 5641 5636 5632 5629 5626 5624
5551 5560 5544 5544 5562 5579 5620 5643 5672 5699 5717 5732 5734 5729 5741 5753 5755 5754 5751 5746 5739 5736 5732 5729 5727 5723 5717 5712 5707 5701 5697 5694 5689 5684 5678 5674 5671 5666 5661 5656 5652 5648 5644 5641 5637 5633 5630 5627 5626
5537 5540 5547 5556 5562 5582 5604 5637 5682 5691 5710 5714 5715 5729 5745 5754 5751 5750 5747 5742 5735 5731 5727 5723 5721 5717 5711 5707 5701 5695 5691 5689 5685 5680 5675 5672 5668 5663 5657 5653 5650 5646 5644 5640 5636 5633 5630 5627 5625
5529 5536 5541 5546 5565 5595 5595 5641 5692 5694 5702 5706 5713 5726 5735 5742 5742 5742 5743 5737 5730 5726 5722 5719 5714 5712 5707 5703 5697 5691 5688 5684 5680 5676 5673 5669 5665 5660 5655 5651 5648 5645 5644 5639 5634 5632 5630 5626 5623